TimeCDT,TemperatureF,Dew PointF,Humidity,Sea Level PressureIn,VisibilityMPH,Wind Direction,Wind SpeedMPH,Gust SpeedMPH,PrecipitationIn,Events,Conditions,WindDirDegrees,DateUTC
12:52 AM,53.1,48.0,83,30.30,10.0,Calm,Calm,-,N/A,,Clear,0,2013-05-25 05:52:00
1:52 AM,50.0,46.9,89,30.28,10.0,Calm,Calm,-,N/A,,Clear,0,2013-05-25 06:52:00
2:52 AM,48.9,46.0,90,30.28,10.0,Calm,Calm,-,N/A,,Clear,0,2013-05-25 07:52:00
3:52 AM,48.0,46.0,93,30.30,10.0,Calm,Calm,-,N/A,,Clear,0,2013-05-25 08:52:00
4:52 AM,48.0,45.0,89,30.29,10.0,Calm,Calm,-,N/A,,Clear,0,2013-05-25 09:52:00
5:52 AM,46.9,45.0,93,30.29,10.0,Calm,Calm,-,N/A,,Clear,0,2013-05-25 10:52:00
6:52 AM,51.1,48.0,89,30.31,10.0,Calm,Calm,-,N/A,,Clear,0,2013-05-25 11:52:00
7:52 AM,57.0,50.0,77,30.33,10.0,Calm,Calm,-,N/A,,Clear,0,2013-05-25 12:52:00
8:52 AM,62.1,48.9,62,30.35,10.0,ESE,3.5,-,N/A,,Clear,120,2013-05-25 13:52:00
9:52 AM,66.0,48.9,54,30.34,10.0,SE,5.8,-,N/A,,Clear,140,2013-05-25 14:52:00
10:52 AM,68.0,46.0,45,30.33,10.0,SE,4.6,-,N/A,,Clear,130,2013-05-25 15:52:00
11:52 AM,72.0,46.9,41,30.32,10.0,NE,4.6,-,N/A,,Clear,40,2013-05-25 16:52:00
12:52 PM,73.0,45.0,37,30.31,10.0,East,6.9,-,N/A,,Clear,90,2013-05-25 17:52:00
1:52 PM,73.9,44.1,34,30.29,10.0,NNE,4.6,-,N/A,,Clear,30,2013-05-25 18:52:00
2:52 PM,75.9,42.1,30,30.27,10.0,ENE,6.9,-,N/A,,Clear,70,2013-05-25 19:52:00
3:52 PM,75.9,41.0,29,30.26,10.0,North,8.1,-,N/A,,Clear,10,2013-05-25 20:52:00
4:52 PM,75.9,45.0,33,30.24,10.0,Variable,3.5,-,N/A,,Clear,0,2013-05-25 21:52:00
5:52 PM,72.0,51.1,48,30.22,10.0,ESE,5.8,-,N/A,,Clear,110,2013-05-25 22:52:00
6:52 PM,70.0,48.9,47,30.17,10.0,SE,8.1,-,N/A,,Clear,140,2013-05-25 23:52:00
7:52 PM,64.9,52.0,63,30.17,10.0,SSE,4.6,-,N/A,,Clear,150,2013-05-26 00:52:00
8:52 PM,64.9,50.0,58,30.18,10.0,Calm,Calm,-,N/A,,Clear,0,2013-05-26 01:52:00
9:52 PM,61.0,51.1,70,30.18,10.0,Calm,Calm,-,N/A,,Clear,0,2013-05-26 02:52:00
10:52 PM,61.0,50.0,67,30.20,10.0,Calm,Calm,-,N/A,,Clear,0,2013-05-26 03:52:00
11:52 PM,57.9,51.1,78,30.20,10.0,Calm,Calm,-,N/A,,Scattered Clouds,0,2013-05-26 04:52:00